Location: Strada George Coșbuc
(47.6577°N, 23.5639°E)
Time: 09:17:19
(UTC+02:00)

ISS - Pass Details

Date: 25 July 2017
Orbit: 412 x 421 km, 51.6° (Epoch: 22 November)

Event Time Altitude Azimuth Distance (km) Brightness Sun altitude
Rises 01:07:26 0° 290° (WNW) 2,355 0.4 -22.4°
Reaches altitude 10° 01:09:42 10° 278° (W) 1,495 -0.8 -22.5°
Enters shadow 01:09:58 12° 275° (W) 1,397 -1.0 -22.5°
